This demonstration page uses our WeatherBlox Daily Observations layout. Learn more.

39.29038, -76.61219

Hourly Observations for July 6, 2015

Temp ( °F °C ) Dew Point ( °F °C ) Humidity (%) Winds ( mph kmh ) Pressure ( in mb ) Visibility ( mi km ) Precip ( " mm )
12:54 am 00:54 undefined 77 25 72 22 83 83 undefined N/A 30.12 1020 N/A 0 0
1:54 am 01:54 Clear 75 24 72 22 89 89 undefined N/A 30.12 1020 N/A 0 0
2:54 am 02:54 Partly Cloudy 75 24 72 22 89 89 undefined N/A 30.12 1020 N/A 0 0
3:54 am 03:54 Cloudy 75 24 72 22 89 89 undefined N/A 30.12 1020 N/A 0 0
4:54 am 04:54 undefined 75 24 73 23 94 94 undefined N/A 30.12 1020 N/A 0 0
5:54 am 05:54 Mostly Cloudy 75 24 72 22 89 89 undefined N/A 30.12 1020 N/A 0 0
6:54 am 06:54 Partly Cloudy 75 24 72 22 89 89 undefined N/A 30.12 1020 N/A 0 0
7:54 am 07:54 Sunny 75 24 72 22 89 89 undefined N/A 30.12 1020 N/A 0 0
8:54 am 08:54 Cloudy 77 25 70 21 79 79 undefined N/A 30.12 1020 N/A 0 0
9:54 am 09:54 Sunny 79 26 72 22 79 79 undefined N/A 30.12 1020 N/A 0 0
10:54 am 10:54 Mostly Sunny 79 26 72 22 79 79 undefined N/A 30.12 1020 N/A 0 0
11:54 am 11:54 Cloudy 81 27 72 22 74 74 undefined N/A 30.12 1020 1.5 2.414016 0 0
12:54 pm 12:54 Sunny 81 27 72 22 74 74 undefined N/A 30.12 1020 N/A 0 0
1:54 pm 13:54 undefined 82 28 72 22 70 70 undefined N/A 30.09 1019 N/A 0 0
2:54 pm 14:54 Mostly Cloudy 82 28 70 21 66 66 undefined N/A 30.06 1018 N/A 0.02 0.508
3:54 pm 15:54 Cloudy 84 29 72 22 66 66 undefined N/A 30.06 1018 N/A 0 0
4:54 pm 16:54 undefined 84 29 70 21 62 62 undefined N/A 30.03 1017 N/A 0 0
5:54 pm 17:54 Sunny 84 29 70 21 62 62 undefined N/A 30.03 1017 N/A 0.001 0.001
6:54 pm 18:54 Partly Cloudy 84 29 70 21 62 62 undefined N/A 30.03 1017 N/A 0 0
7:54 pm 19:54 undefined 82 28 70 21 66 66 undefined N/A 30.03 1017 N/A 0 0
8:54 pm 20:54 undefined 81 27 70 21 70 70 undefined N/A 30.03 1017 N/A 0 0
9:54 pm 21:54 Mostly Clear 73 23 72 22 94 94 undefined N/A 30 1016 N/A 0.5 12.7
10:54 pm 22:54 Mostly Clear 75 24 73 23 94 94 undefined N/A 30.03 1017 N/A 0 0
11:54 pm 23:54 undefined 75 24 73 23 94 94 undefined N/A 30.03 1017 N/A 0 0

Powered by AerisWeather